Location: Oshawa
(43.9000°N, 78.8670°W)
Time: 18:09:25
(UTC-04:00)

Cosmos 839 Rocket - Visible Passes

Search period start: 23 March 2017 00:00
Search period end: 02 April 2017 00:00
Orbit: 968 x 2084 km, 65.9° (Epoch: 22 March)

Date Brightness Start Highest point End Pass type
(mag) Time Alt. Az. Time Alt. Az. Time Alt. Az.
23 Mar 6.0 01:55:29 24° NE 01:55:29 24° NE 01:57:50 10° NE visible
23 Mar 5.3 03:52:04 33° NW 03:52:04 33° NW 03:57:24 10° NNE visible
23 Mar 6.3 05:52:00 10° NNW 05:53:57 11° NNW 05:55:52 10° N visible
24 Mar 6.5 01:14:35 15° NE 01:14:35 15° NE 01:15:40 10° NE visible
24 Mar 5.3 03:11:11 39° N 03:11:11 39° N 03:15:42 10° NNE visible
24 Mar 6.2 05:07:46 10° NW 05:11:11 14° NNW 05:14:26 10° N visible
25 Mar 5.5 02:30:15 36° NNE 02:30:15 36° NNE 02:33:55 10° NNE visible
25 Mar 6.0 04:26:50 17° NW 04:28:32 18° NNW 04:32:53 10° NNE visible
26 Mar 5.8 01:49:18 28° NE 01:49:18 28° NE 01:52:03 10° NE visible
26 Mar 5.7 03:45:53 24° NW 03:46:04 25° NW 03:51:18 10° NNE visible
27 Mar 6.2 01:08:19 20° NE 01:08:19 20° NE 01:10:04 10° NE visible
27 Mar 5.5 03:04:54 32° NNW 03:04:54 32° NNW 03:09:38 10° NNE visible
27 Mar 6.4 05:04:15 10° NNW 05:06:11 11° NNW 05:08:05 10° N visible
28 Mar 6.5 00:27:19 13° NE 00:27:19 13° NE 00:27:53 10° NE visible
28 Mar 5.5 02:23:54 36° N 02:23:54 36° N 02:27:56 10° NNE visible
28 Mar 6.3 04:20:29 11° NW 04:23:25 14° NNW 04:26:41 10° N visible
28 Mar 6.6 06:26:40 10° N 06:27:08 10° N 06:27:34 10° NNE visible
29 Mar 5.6 01:42:52 33° NNE 01:42:52 33° NNE 01:46:10 10° NNE visible
29 Mar 6.0 03:39:27 17° NW 03:40:47 18° NNW 03:45:08 10° NNE visible
30 Mar 5.9 01:01:48 26° NE 01:01:48 26° NE 01:04:18 10° NE visible
30 Mar 5.8 02:58:23 25° NW 02:58:23 25° NW 03:03:32 10° NNE visible
31 Mar 6.1 00:20:42 19° NE 00:20:42 19° NE 00:22:18 10° NE visible
31 Mar 5.6 02:17:17 32° NNW 02:17:17 32° NNW 02:21:53 10° NNE visible
31 Mar 6.5 04:16:30 10° NNW 04:18:25 11° NNW 04:20:18 10° N visible
31 Mar 6.5 06:19:53 10° N 06:22:11 12° NNE 06:24:29 10° NE visible
31 Mar 6.4 23:39:34 12° NE 23:39:34 12° NE 23:40:06 10° NE visible
01 Apr 5.5 01:36:08 36° N 01:36:08 36° N 01:40:11 10° NNE visible
01 Apr 6.4 03:32:42 11° NW 03:35:40 14° NNW 03:38:55 10° N visible
